This is the latest recevied weather packets stored in our database for station/object KD7AWQ. If no packets are shown the sender has not sent any weather packets the latest 10 day(s).
| Time | Temp. | Humidity | Pressure | Rain* | Wind** | Luminosity | Snow |
|---|---|---|---|---|---|---|---|
| 1778100692 | 22.78° C | 23% | 1184.3 hPa | 0 mm | - | 1017 W/m² | - |
| 1778100391 | 22.22° C | 22% | 1184.4 hPa | 0 mm | - | 1026 W/m² | - |
| 1778100087 | 21.67° C | 23% | 1184.3 hPa | 0 mm | - | 1035 W/m² | - |
| 1778099786 | 21.11° C | 22% | 1184.4 hPa | 0 mm | - | 1047 W/m² | - |
| 1778099482 | 21.67° C | 22% | 1184.4 hPa | 0 mm | - | 1050 W/m² | - |
| 1778099180 | 21.11° C | 24% | 1184.3 hPa | 0 mm | - | 1055 W/m² | - |
| 1778098876 | 20.56° C | 23% | 1184.5 hPa | 0 mm | - | 1059 W/m² | - |
| 1778098573 | 21.11° C | 23% | 1184.5 hPa | 0 mm | - | 1070 W/m² | - |
| 1778098270 | 21.11° C | 24% | 1184.6 hPa | 0 mm | - | 1076 W/m² | - |
| 1778097966 | 21.11° C | 25% | 1184.5 hPa | 0 mm | - | 1081 W/m² | - |
| 1778097663 | 21.67° C | 24% | 1184.6 hPa | 0 mm | - | 1083 W/m² | - |
| 1778097359 | 21.11° C | 25% | 1184.4 hPa | 0 mm | - | 1089 W/m² | - |
| 1778097056 | 21.11° C | 24% | 1185 hPa | 0 mm | - | 1093 W/m² | - |
| 1778096754 | 20.56° C | 25% | 1184.8 hPa | 0 mm | - | 1092 W/m² | - |
| 1778096450 | 20° C | 27% | 1185 hPa | 0 mm | - | 1094 W/m² | - |
| 1778096148 | 20° C | 27% | 1184.7 hPa | 0 mm | - | 1094 W/m² | - |
| 1778095845 | 20.56° C | 26% | 1184.9 hPa | 0 mm | - | 1096 W/m² | - |
| 1778095541 | 20.56° C | 26% | 1184.6 hPa | 0 mm | - | 1096 W/m² | - |
| 1778095237 | 20.56° C | 26% | 1184.9 hPa | 0 mm | - | 1096 W/m² | - |
| 1778094934 | 20.56° C | 27% | 1185.3 hPa | 0 mm | - | 1095 W/m² | - |
| 1778094630 | 21.11° C | 27% | 1184.9 hPa | 0 mm | - | 1094 W/m² | - |
| 1778094327 | 20.56° C | 27% | 1185.4 hPa | 0 mm | - | 1092 W/m² | - |
| 1778094024 | 20° C | 28% | 1185.2 hPa | 0 mm | - | 1090 W/m² | - |
| 1778093722 | 18.89° C | 29% | 1185.5 hPa | 0 mm | - | 1088 W/m² | - |
| 1778093418 | 19.44° C | 30% | 1185.3 hPa | 0 mm | - | 1085 W/m² | - |
* Rain latest hour (hover to see other rain measurements)
** Current wind speed in m/s (hover to see current wind gust speed)